Kosmos-1563

operational
NORAD ID: 15002 Int'l Des: 1984-052 Owner: GUKOS Country: SU
LEOCIRCULAR

Über Kosmos-1563

Beschreibung wird geladen...

Live-Position

3D-Globus wird geladen...

Nächste Überflüge

Höhenverlauf

Altitude vs Time

uPlot chart will show altitude changes over time

Zweizeiliger Elementsatz

1 15002U 84052E 26062.61931781 -.00000026 00000-0 -62393-4 0 9996
2 15002 74.0142 25.2569 0024850 191.7589 280.7596 12.51838350640997
Epoch: 3. März 2026 • Age: 22 hours

Aktueller Status

Höhe 1478.2 km
Geschwindigkeit 7.12 km/s
Subsatellitenpunkt 2.09°N, 105.44°W
Startdatum 28. Mai 1984
Alter 41.7 years
Typ other

Technische Details

Klassifizierung Payload
Masse 60.00 kg
Trockenmasse 60.00 kg
Gesamtmasse 60.00 kg
Länge 0.80 m
Durchmesser 0.80 m
Spannweite 0.80 m
Form Poly
Hersteller NPOPM
Bus-Typ Strela-1 11F625
Phasenstatus In Orbit
Besitzer/Staat GUKOS/SU

Große Konstellationen

Loading constellations...